Location: The Saddle
(36.8333°N, 80.3417°W)
Time: 08:15:45
(UTC-04:00)

A-11 Canister half - Pass Details

Date: 02 June 2024
Orbit: 1515 x 1685 km, 47.2° (Epoch: 17 June)

Event Time Altitude Azimuth Distance (km) Brightness Sun altitude
Rises 02:55:04 0° 276° (W) 4,811 11.4 -26.7°
Reaches altitude 10° 02:58:27 10° 283° (WNW) 3,801 10.9 -26.5°
Maximum altitude 03:07:34 45° 355° (N) 2,014 9.9 -25.6°
Drops below altitude 10° 03:16:25 10° 66° (ENE) 3,694 11.7 -24.8°
Sets 03:19:39 0° 73° (ENE) 4,665 12.2 -24.5°
